Hourly Data Report for October 06, 2020

MUSKOKA
ONTARIO
Current Station Operator: NAVCAN

44°58'29.000" N
79°18'12.000" W
281.90 m
6115529
71532
YQA

Download Data

Hourly Data (October 2020)
Hourly Data Report for October 6, 2020
TIME Temp Definition
°C
Dew Point Definition
°C
Rel Hum Definition
%
Wind Dir Definition
10's deg

Wind Spd Definition
km/h
Visibility Definition
km
Stn Press Definition
kPa
Hmdx Definition


Wind Chill Definition


Weather Definition


00:00 5.6 4.4 92 14 9 16.1 98.29     LegendNANA
01:00 5.2 4.4 95 17 11 16.1 98.28     LegendNANA
02:00 5.5 4.5 93 16 11 16.1 98.24     LegendNANA
03:00 6.2 4.7 90 16 13 16.1 98.10     LegendNANA
04:00 6.8 5.1 89 17 17 16.1 98.01     LegendNANA
05:00 7.3 5.3 87 18 17 16.1 97.97     LegendNANA
06:00 7.8 5.4 85 18 18 16.1 97.90     LegendNANA
07:00 8.2 5.8 85 17 17 16.1 97.84     LegendNANA
08:00 9.2 6.3 82 18 17 16.1 97.81     LegendNANA
09:00 10.1 6.5 78 19 15 16.1 97.81     LegendNANA
10:00 11.0 6.7 75 19 15 16.1 97.78     LegendNANA
11:00 12.8 7.8 71 19 22 16.1 97.74     LegendNANA
12:00 14.9 7.6 61 18 24 16.1 97.61     LegendNANA
13:00 15.0 7.3 60 21 21 16.1 97.55     LegendNANA
14:00 15.2 8.5 64 17 21 16.1 97.49     LegendNANA
15:00 15.4 9.2 66 19 9 16.1 97.43     LegendNANA
16:00 14.7 9.3 70 24 8 16.1 97.44     LegendNANA
17:00 14.4 9.3 71 26 8 16.1 97.41     LegendNANA
18:00 12.5 9.4 81 LegendMM 4 16.1 97.44     LegendNANA
19:00 8.4 8.1 98 16 4 16.1 97.44     LegendNANA
20:00 7.3 7.2 99 11 4 16.1 97.39     LegendNANA
21:00 6.4 6.3 99 14 5 16.1 97.34     LegendNANA
22:00 6.0 5.7 98 13 4 16.1 97.29     LegendNANA
23:00 7.9 7.6 98 15 9 16.1 97.23     LegendNANA

Notes on Data Quality.

Legend

  • E = Estimated
  • M = Missing
  • NA = Not Available*
  • [empty] = Indicates an unobserved value
Date modified: